User: anonymous   Login
Location: Unspecified
(0.0000°N, 0.0000°E)
Time: 07:52:04
(UTC+00:00)
Language:

Gonets-D1 - Orbit

View from above orbital plane
View from above orbital plane
View from above satellite
View from above satellite

Ground track
Ground track

The orbit data is extracted from the following two-line orbital elements,

1 24727U 97006C   17328.44702550  .00000038  00000-0  15080-3 0  9990
2 24727  82.6052  83.5684 0000706  69.7165 357.4408 12.62319331957360
Epoch (UTC): 24 November 2017 10:43:43
Eccentricity: 0.0000706
inclination: 82.6052°
perigee height: 1413 km
apogee height: 1414 km
right ascension of ascending node: 83.5684°
argument of perigee: 69.7165°
revolutions per day: 12.62319331
mean anomaly at epoch: 357.4408°
orbit number at epoch: 95736

The dashed part of the orbit path shows where the satellite is in the earth's shadow,  

DLR